WZZ14P LZIB-OOMS

Flight info

Callsign WZZ14P
Flight time N/A
Altitude 29000
Route VAMOG DCT SIRDU DCT BABIT DCT NISVA/N0459F310 DCT NIKTI DCT PAXIS L607 NABSI/N0462F330 P557 OBRAN L321 REXUM M872 PMA Y214 RAPMA DCT KUVSO DCT KATIT DCT MIDGU M717 PUTSO N685 LAKLU
Aircraft A321/M-SDE3FGHIRWY/LB1

Departure

Time 2026-04-27 08:53
Airport M. R. Štefánik Airport (LZIB)

Arrival

Time N/A
Airport Muscat International Airport (OOMS)
Time Latitude Longitude Altitude Speed Heading
2026-04-27 08:15 48.16845 17.19974 439 ft 0 kts 313°
2026-04-27 08:43 48.16839 17.19983 425 ft 3 kts 315°
2026-04-27 08:43 48.16824 17.20003 425 ft 3 kts 327°
2026-04-27 08:43 48.16807 17.20016 426 ft 3 kts 349°
2026-04-27 08:44 48.16790 17.20017 427 ft 3 kts 28°
2026-04-27 08:44 48.16783 17.20012 427 ft 0 kts 43°
2026-04-27 08:46 48.16783 17.20011 427 ft 0 kts 43°
2026-04-27 08:47 48.16785 17.20015 428 ft 1 kts 43°
2026-04-27 08:48 48.16803 17.20041 425 ft 5 kts 43°
2026-04-27 08:48 48.16834 17.20085 427 ft 7 kts 44°
2026-04-27 08:48 48.16875 17.20143 427 ft 9 kts 44°
2026-04-27 08:48 48.16924 17.20213 425 ft 11 kts 43°
2026-04-27 08:49 48.16983 17.20295 425 ft 12 kts 43°
2026-04-27 08:49 48.17049 17.20389 425 ft 14 kts 44°
2026-04-27 08:49 48.17114 17.20483 430 ft 11 kts 44°
2026-04-27 08:49 48.17161 17.20549 427 ft 8 kts 39°
2026-04-27 08:50 48.17206 17.20576 429 ft 6 kts 356°
2026-04-27 08:50 48.17236 17.20544 426 ft 6 kts 311°
2026-04-27 08:50 48.17270 17.20490 425 ft 8 kts 313°
2026-04-27 08:50 48.17313 17.20421 422 ft 10 kts 313°
2026-04-27 08:51 48.17363 17.20345 420 ft 9 kts 319°
2026-04-27 08:51 48.17416 17.20304 421 ft 9 kts 344°
2026-04-27 08:51 48.17476 17.20310 419 ft 9 kts 19°
2026-04-27 08:51 48.17529 17.20367 419 ft 8 kts 43°
2026-04-27 08:52 48.17549 17.20399 427 ft 2 kts 57°
2026-04-27 08:52 48.17552 17.20418 428 ft 1 kts 85°
2026-04-27 08:52 48.17549 17.20434 428 ft 3 kts 109°
2026-04-27 08:52 48.17534 17.20455 427 ft 8 kts 135°
2026-04-27 08:53 48.17320 17.20785 420 ft 81 kts 135°
2026-04-27 08:53 48.16778 17.21619 421 ft 140 kts 134°
2026-04-27 08:53 48.15994 17.22837 621 ft 173 kts 134°
2026-04-27 08:53 48.15174 17.24114 1483 ft 168 kts 133°
2026-04-27 08:54 48.14366 17.25378 2137 ft 171 kts 134°
2026-04-27 08:54 48.13617 17.26539 2422 ft 179 kts 135°
2026-04-27 08:54 48.12730 17.27910 2861 ft 184 kts 135°
2026-04-27 08:54 48.11852 17.29281 3414 ft 180 kts 135°
2026-04-27 08:55 48.10982 17.30626 3790 ft 186 kts 135°
2026-04-27 08:55 48.10026 17.32097 3887 ft 209 kts 135°
2026-04-27 08:55 48.08964 17.33720 4097 ft 227 kts 135°
2026-04-27 08:55 48.07822 17.35487 4323 ft 245 kts 135°
2026-04-27 08:56 48.06614 17.37361 4810 ft 251 kts 135°
2026-04-27 08:56 48.05408 17.39232 5631 ft 247 kts 135°
2026-04-27 08:56 48.04188 17.41106 6160 ft 260 kts 135°
2026-04-27 08:56 48.02876 17.43101 6431 ft 276 kts 138°
2026-04-27 08:57 47.99407 17.45135 7498 ft 274 kts 186°
2026-04-27 08:57 47.97503 17.44859 8033 ft 276 kts 189°
2026-04-27 08:57 47.95583 17.44539 8596 ft 279 kts 190°
2026-04-27 08:58 47.93639 17.44208 9133 ft 283 kts 190°
2026-04-27 08:58 47.91703 17.43880 9693 ft 285 kts 191°
2026-04-27 08:58 47.89720 17.43547 10139 ft 292 kts 191°
2026-04-27 08:58 47.87663 17.43203 10392 ft 306 kts 191°
2026-04-27 08:59 47.85486 17.42839 10517 ft 324 kts 190°
2026-04-27 08:59 47.83186 17.42459 10640 ft 341 kts 190°
2026-04-27 08:59 47.80770 17.42063 10772 ft 357 kts 189°
2026-04-27 08:59 47.78267 17.41655 11114 ft 365 kts 189°
2026-04-27 09:00 47.75730 17.41245 11596 ft 368 kts 189°
2026-04-27 09:00 47.73156 17.41181 12196 ft 373 kts 174°
2026-04-27 09:00 47.70659 17.42266 12807 ft 378 kts 155°
2026-04-27 09:00 47.68358 17.44197 13345 ft 381 kts 151°
2026-04-27 09:01 47.66071 17.46209 13891 ft 383 kts 151°
2026-04-27 09:01 47.63781 17.48242 14376 ft 386 kts 150°
2026-04-27 09:01 47.61472 17.50292 14862 ft 388 kts 151°
2026-04-27 09:01 47.59146 17.52353 15323 ft 391 kts 151°
2026-04-27 09:02 47.56801 17.54419 15782 ft 393 kts 151°
2026-04-27 09:02 47.54438 17.56493 16247 ft 396 kts 151°
2026-04-27 09:02 47.52056 17.58579 16698 ft 399 kts 151°
2026-04-27 09:02 47.49658 17.60681 17165 ft 402 kts 151°
2026-04-27 09:03 47.47242 17.62794 17623 ft 405 kts 152°
2026-04-27 09:03 47.44807 17.64918 18085 ft 408 kts 152°
2026-04-27 09:03 47.42355 17.67054 18570 ft 411 kts 152°
2026-04-27 09:03 47.39887 17.69201 18964 ft 413 kts 152°
2026-04-27 09:04 47.37401 17.71359 19365 ft 416 kts 151°
2026-04-27 09:04 47.34902 17.73530 19790 ft 418 kts 151°
2026-04-27 09:04 47.32394 17.75710 20196 ft 421 kts 151°
2026-04-27 09:04 47.29864 17.77906 20605 ft 423 kts 151°
2026-04-27 09:05 47.27318 17.80112 20997 ft 426 kts 151°
2026-04-27 09:05 47.24790 17.82298 21378 ft 428 kts 151°
2026-04-27 09:05 47.22214 17.84522 21756 ft 430 kts 151°
2026-04-27 09:05 47.19623 17.86755 22142 ft 433 kts 151°
2026-04-27 09:06 47.17015 17.88996 22512 ft 435 kts 151°
2026-04-27 09:06 47.14393 17.91248 22876 ft 438 kts 150°
2026-04-27 09:06 47.11760 17.93514 23241 ft 440 kts 150°
2026-04-27 09:06 47.09113 17.95792 23598 ft 442 kts 150°
2026-04-27 09:07 47.06452 17.98080 23945 ft 444 kts 150°
2026-04-27 09:07 47.03777 18.00374 24224 ft 446 kts 150°
2026-04-27 09:07 47.01087 18.02672 24521 ft 448 kts 150°
2026-04-27 09:07 46.98387 18.04979 24800 ft 450 kts 150°
2026-04-27 09:08 46.95677 18.07297 25083 ft 452 kts 150°
2026-04-27 09:08 46.92963 18.09618 25367 ft 454 kts 151°
2026-04-27 09:08 46.90254 18.11929 25897 ft 449 kts 151°
2026-04-27 09:08 46.87561 18.14223 26272 ft 448 kts 151°
2026-04-27 09:09 46.84862 18.16512 26588 ft 449 kts 151°
2026-04-27 09:09 46.82153 18.18800 26872 ft 450 kts 151°
2026-04-27 09:09 46.79431 18.21100 27064 ft 454 kts 151°
2026-04-27 09:09 46.76681 18.23429 27202 ft 459 kts 151°
2026-04-27 09:10 46.73902 18.25785 27332 ft 464 kts 151°
2026-04-27 09:10 46.71087 18.28169 27374 ft 472 kts 151°
2026-04-27 09:10 46.68225 18.30590 27399 ft 479 kts 151°
2026-04-27 09:10 46.65324 18.33039 27384 ft 487 kts 151°
2026-04-27 09:11 46.62400 18.35498 27285 ft 496 kts 151°
2026-04-27 09:11 46.59409 18.38009 27538 ft 496 kts 152°
2026-04-27 09:11 46.56385 18.40549 27859 ft 495 kts 152°
2026-04-27 09:11 46.53407 18.43053 28171 ft 494 kts 152°
2026-04-27 09:12 46.50438 18.45542 28488 ft 493 kts 152°
2026-04-27 09:12 46.47467 18.48026 28797 ft 492 kts 152°
2026-04-27 09:12 46.44496 18.50503 29022 ft 493 kts 152°
2026-04-27 09:12 46.41517 18.52982 29231 ft 494 kts 152°
2026-04-27 09:13 46.38563 18.55439 29297 ft 498 kts 152°
2026-04-27 09:13 46.32518 18.60465 29295 ft 502 kts 152°
2026-04-27 09:14 46.26466 18.65492 29298 ft 502 kts 152°
2026-04-27 09:14 46.20407 18.70516 29293 ft 502 kts 152°
2026-04-27 09:15 46.14348 18.75519 29292 ft 502 kts 153°
2026-04-27 09:15 46.08286 18.80507 29290 ft 502 kts 153°
2026-04-27 09:16 46.02221 18.85480 29285 ft 501 kts 153°
2026-04-27 09:16 45.96156 18.90430 29281 ft 501 kts 153°
2026-04-27 09:17 45.90588 18.96479 29279 ft 506 kts 137°
2026-04-27 09:17 45.85578 19.03573 29291 ft 506 kts 137°
2026-04-27 09:18 45.80545 19.10617 29275 ft 506 kts 138°
2026-04-27 09:18 45.75497 19.17643 29286 ft 506 kts 138°
2026-04-27 09:19 45.70457 19.24660 29264 ft 506 kts 138°
2026-04-27 09:19 45.65413 19.31669 29277 ft 506 kts 138°
2026-04-27 09:20 45.60363 19.38667 29273 ft 506 kts 138°
2026-04-27 09:20 45.55303 19.45653 29270 ft 506 kts 139°
2026-04-27 09:21 45.50236 19.52632 29268 ft 506 kts 139°
2026-04-27 09:21 45.45172 19.59599 29264 ft 506 kts 139°
2026-04-27 09:22 45.40092 19.66559 29266 ft 507 kts 139°
2026-04-27 09:22 45.35042 19.73458 29263 ft 507 kts 139°
2026-04-27 09:23 45.29922 19.80442 29264 ft 506 kts 139°
2026-04-27 09:23 45.24842 19.87355 29262 ft 506 kts 139°
2026-04-27 09:24 45.19793 19.94214 29260 ft 506 kts 139°
2026-04-27 09:24 45.14708 20.01088 29263 ft 505 kts 139°
2026-04-27 09:25 45.09625 20.07939 29269 ft 504 kts 139°
2026-04-27 09:25 45.04548 20.14779 29269 ft 504 kts 139°
2026-04-27 09:26 44.99469 20.21614 29279 ft 504 kts 139°
2026-04-27 09:26 44.95242 20.27277 29271 ft 504 kts 139°
2026-04-27 09:27 44.90141 20.34067 29274 ft 504 kts 139°
2026-04-27 09:27 44.85044 20.40853 29278 ft 504 kts 139°
2026-04-27 09:28 44.79952 20.47632 29269 ft 503 kts 139°
2026-04-27 09:28 44.74860 20.54394 29269 ft 503 kts 139°
2026-04-27 09:29 44.69762 20.61139 29259 ft 503 kts 139°
2026-04-27 09:29 44.64654 20.67860 29257 ft 503 kts 139°
2026-04-27 09:30 44.59555 20.74570 29254 ft 503 kts 139°
2026-04-27 09:30 44.54451 20.81282 29256 ft 503 kts 139°
2026-04-27 09:31 44.49338 20.87967 29254 ft 503 kts 139°
2026-04-27 09:31 44.44223 20.94641 29253 ft 502 kts 139°
2026-04-27 09:32 44.39111 21.01311 29256 ft 502 kts 139°
2026-04-27 09:32 44.34030 21.07920 29258 ft 502 kts 139°
2026-04-27 09:33 44.28914 21.14558 29257 ft 502 kts 139°
2026-04-27 09:33 44.23790 21.21185 29253 ft 502 kts 139°
2026-04-27 09:34 44.18664 21.27794 29254 ft 502 kts 139°
2026-04-27 09:34 44.13535 21.34388 29258 ft 502 kts 139°
2026-04-27 09:35 44.08409 21.40961 29258 ft 501 kts 139°
2026-04-27 09:35 44.03280 21.47536 29258 ft 501 kts 139°
2026-04-27 09:36 43.98148 21.54097 29259 ft 501 kts 139°
2026-04-27 09:36 43.93007 21.60630 29260 ft 501 kts 140°
2026-04-27 09:37 43.87667 21.66818 29267 ft 500 kts 143°
2026-04-27 09:37 43.82166 21.72704 29265 ft 499 kts 144°
2026-04-27 09:38 43.76671 21.78587 29267 ft 499 kts 143°
2026-04-27 09:38 43.71239 21.84560 29270 ft 499 kts 143°
2026-04-27 09:39 43.65859 21.90531 29270 ft 499 kts 143°
2026-04-27 09:39 43.60427 21.96500 29264 ft 499 kts 143°
2026-04-27 09:40 43.54988 22.02440 29260 ft 498 kts 143°
2026-04-27 09:40 43.49553 22.08370 29256 ft 498 kts 143°
2026-04-27 09:41 43.44124 22.14288 29255 ft 497 kts 143°
2026-04-27 09:41 43.38693 22.20179 29259 ft 497 kts 143°
2026-04-27 09:42 43.33267 22.26035 29252 ft 496 kts 143°
2026-04-27 09:42 43.27841 22.31892 29250 ft 496 kts 143°
2026-04-27 09:43 43.22420 22.37733 29245 ft 495 kts 143°
2026-04-27 09:43 43.17000 22.43565 29240 ft 495 kts 143°
2026-04-27 09:44 43.11574 22.49388 29240 ft 495 kts 143°
2026-04-27 09:44 43.06146 22.55196 29230 ft 495 kts 143°
2026-04-27 09:45 43.00717 22.60994 29229 ft 495 kts 143°
2026-04-27 09:45 42.95291 22.66772 29227 ft 494 kts 143°
2026-04-27 09:46 42.89864 22.72530 29224 ft 494 kts 143°
2026-04-27 09:46 42.84452 22.78274 29222 ft 493 kts 143°
2026-04-27 09:47 42.79076 22.83966 29220 ft 492 kts 143°
2026-04-27 09:47 42.73726 22.89606 29225 ft 492 kts 143°
2026-04-27 09:48 42.68322 22.95302 29231 ft 492 kts 143°
2026-04-27 09:48 42.62913 23.00994 29236 ft 492 kts 143°
2026-04-27 09:49 42.57505 23.06671 29245 ft 492 kts 143°
2026-04-27 09:49 42.52088 23.12335 29243 ft 492 kts 143°
2026-04-27 09:50 42.46667 23.17987 29241 ft 492 kts 143°
2026-04-27 09:50 42.41242 23.23637 29237 ft 492 kts 143°
2026-04-27 09:51 42.35811 23.29271 29229 ft 492 kts 143°
2026-04-27 09:51 42.30375 23.34905 29224 ft 492 kts 143°
2026-04-27 09:52 42.24941 23.40525 29222 ft 492 kts 143°
2026-04-27 09:52 42.19506 23.46141 29222 ft 492 kts 143°
2026-04-27 09:53 42.14063 23.51757 29217 ft 493 kts 143°
2026-04-27 09:53 42.08613 23.57363 29216 ft 494 kts 143°
2026-04-27 09:54 42.03181 23.62933 29216 ft 494 kts 144°
2026-04-27 09:54 41.97706 23.68521 29209 ft 494 kts 144°
2026-04-27 09:55 41.92236 23.74096 29202 ft 493 kts 144°
2026-04-27 09:55 41.84036 23.82447 29204 ft 493 kts 144°
2026-04-27 09:56 41.78565 23.88003 29202 ft 494 kts 144°
2026-04-27 09:56 41.73088 23.93559 29195 ft 494 kts 144°
2026-04-27 09:57 41.67612 23.99104 29200 ft 494 kts 144°
2026-04-27 09:57 41.62122 24.04634 29196 ft 494 kts 144°